[[{"header":{"parameterUnit":"m.s-1","parameterCategory":2,"la1":30.2991,"la2":30.254,"lo1":-89.0895,"lo2":-89.0444,"dy":0.0017,"dx":0.0017,"nx":28,"ny":28,"refTime":"2024-12-02T09:00:00:Z","depth":"0","parameterNumber":2,"parameterNumberName":"U-component_of_CURRENTS"},"data":[0,0,0,0,0,0,0,0,0,0,0,0,0,0,0,0,0,0,0,0,0,0,0,0,0,0,0,0,0,0,0,0,0,0,0,0,0,0,0,0,0,0,0,0,0,0,0,0,0,0,0,0,0,0,0,0,0,0,0.3398,0.3399,0,0.3437,0.3437,0.3438,0.3426,0.3426,0.3426,0.3425,0.3418,0.3418,0.3418,0,0,0,0,0,0,0,0,0,0,0,0,0,0.3326,0.3327,0.3398,0.3399,0.34,0.3437,0.3437,0.3438,0.3427,0.3426,0.3425,0.3425,0.3418,0.3418,0.3418,0,0,0,0,0,0,0,0,0,0,0,0,0,0.3357,0.3328,0.3398,0.3402,0.3403,0.3437,0.3437,0.3438,0.3427,0.3426,0.3425,0.3425,0.3418,0.3418,0.3418,0.3434,0,0,0.3419,0.3419,0,0,0,0,0,0,0,0,0.3355,0.3359,0.34,0.3401,0.3403,0.343,0.341,0.3436,0.3427,0.3414,0.3425,0.3424,0.342,0.342,0.3425,0.3434,0.3434,0.3419,0.342,0.342,0.342,0,0,0,0,0,0,0,0.3353,0.3358,0.341,0.3401,0.3403,0.3406,0.3409,0.3414,0.3417,0.3415,0.3415,0.3425,0.342,0.3424,0.3424,0.3434,0.3419,0.342,0.342,0.342,0.3501,0.3503,0,0,0,0,0,0,0.3356,0.3356,0.3409,0.3411,0.3381,0.3408,0.3411,0.3419,0.3418,0.3418,0.3426,0.3425,0.3424,0.3424,0.3424,0.3477,0.342,0.342,0.342,0.3499,0.3501,0.3503,0,0,0,0,0,0,0.3354,0.336,0.3407,0.3387,0.3394,0.341,0.3418,0.342,0.3429,0.3427,0.3426,0.3435,0.3424,0.3424,0.3445,0.3475,0.342,0.3421,0.3497,0.35,0.3502,0.356,0,0,0,0,0,0,0.3352,0.3359,0.3365,0.3388,0.3395,0.3436,0.342,0.3421,0.3438,0.3437,0.3435,0.3433,0.3423,0.3444,0.3445,0.3474,0.3421,0.3494,0.3498,0.3501,0.3556,0.3565,0.3572,0,0,0,0,0,0.3349,0.336,0.3365,0.3372,0.3403,0.3438,0.3442,0.3448,0.3439,0.3451,0.3454,0.3433,0.3468,0.3446,0.3447,0.3477,0.3492,0.3497,0.3501,0.3552,0.3563,0.3572,0,0,0,0,0,0,0.3328,0.3362,0.3367,0.3386,0.3415,0.3437,0.3451,0.3455,0.3467,0.3465,0.3454,0.3453,0.3489,0.3477,0.3453,0.3513,0.3479,0.3484,0.3518,0.3528,0.3536,0.3554,0.3421,0,0,0,0,0,0.3329,0.3347,0.338,0.3397,0.3413,0.3433,0.3448,0.3457,0.3473,0.3477,0.3476,0.3484,0.3508,0.3511,0.3527,0.3551,0.3572,0.3574,0.3582,0.3589,0.3607,0.3677,0.3693,0.3518,0.3518,0.3518,0,0,0.3324,0.3347,0.3356,0.3394,0.3415,0.3446,0.3439,0.347,0.3498,0.3475,0.3505,0.3515,0.3524,0.356,0.3574,0.3551,0.365,0.3595,0.3601,0.3615,0.3683,0.3701,0.3716,0.3521,0.352,0.352,0,0,0.3329,0.3348,0.3367,0.3398,0.344,0.3459,0.3472,0.3503,0.3519,0.3551,0.3554,0.3588,0.3598,0.3626,0.3637,0.3702,0.3698,0.37,0.3748,0.3816,0.3831,0.3844,0.3888,0.3905,0.3696,0.3696,0.3696,0,0.332,0.3352,0.3378,0.3411,0.3442,0.3467,0.3501,0.3528,0.3561,0.3589,0.3567,0.3637,0.3637,0.3709,0.3729,0.3722,0.375,0.3705,0.3827,0.3841,0.3854,0.3895,0.3913,0.37,0.3699,0.3699,0.3699,0,0.3344,0.3374,0.3393,0.3443,0.3478,0.3515,0.3562,0.3595,0.3612,0.3641,0.3712,0.3727,0.3768,0.3777,0.3768,0.3865,0.3852,0.3835,0.38,0.3875,0.3913,0.3931,0.3704,0.3703,0.3702,0.3701,0,0,0.3306,0.3391,0.3395,0.3426,0.3502,0.3527,0.3594,0.3661,0.3713,0.3744,0.3817,0.386,0.3874,0.3891,0.3898,0.3952,0.4057,0.393,0.3932,0.3971,0.42,0.4139,0.4151,0.4061,0.4064,0.4067,0.4187,0,0.3316,0.3372,0.3422,0.348,0.3514,0.3578,0.3639,0.3705,0.3763,0.3839,0.3886,0.3953,0.3917,0.3948,0.4,0.4055,0.4108,0.4025,0.4124,0.4127,0.4062,0.4172,0.4033,0.4125,0.4205,0.4208,0.421,0,0.3318,0.3359,0.3413,0.3505,0.3528,0.3567,0.3676,0.3737,0.386,0.3918,0.3999,0.4038,0.4135,0.4089,0.4218,0.4167,0.4191,0.4221,0.4225,0.4164,0.41,0.4065,0.4154,0.4078,0.4237,0.4235,0.4233,0,0.3262,0.335,0.339,0.3421,0.3528,0.3567,0.3625,0.3747,0.3827,0.3975,0.4048,0.4158,0.4223,0.4287,0.4328,0.4289,0.4466,0.4414,0.4383,0.4378,0.4278,0.4258,0.4303,0.4514,0.4513,0.4513,0.4513,0,0.3247,0.3276,0.3361,0.3379,0.344,0.3527,0.3617,0.3707,0.3861,0.3956,0.4071,0.4166,0.4279,0.4373,0.4393,0.4451,0.4516,0.4427,0.4423,0.4292,0.4273,0.4213,0.4173,0.4517,0.4516,0.4516,0.4515,0,0.3179,0.3236,0.3284,0.3381,0.3412,0.3449,0.3597,0.367,0.3824,0.396,0.4013,0.421,0.4336,0.4428,0.4556,0.453,0.4481,0.4588,0.4416,0.4389,0.4254,0.4222,0.4125,0.3988,0.4581,0.4581,0.458,0,0.3149,0.3165,0.3256,0.3278,0.3317,0.3394,0.3455,0.3629,0.3717,0.3962,0.4016,0.4209,0.4324,0.4507,0.4535,0.46,0.4463,0.4475,0.4371,0.4262,0.4225,0.406,0.3939,0.4263,0.426,0.4258,0.4256,0,0.3088,0.3119,0.3153,0.3203,0.3251,0.3314,0.3409,0.3481,0.3679,0.3802,0.3962,0.4087,0.4306,0.434,0.4452,0.446,0.4276,0.4423,0.4371,0.4044,0.381,0.3669,0.4156,0.4234,0.4236,0.4238,0.4239,0.424,0.3031,0.3036,0.3077,0.3115,0.3164,0.3195,0.3203,0.3324,0.3433,0.3579,0.3786,0.3917,0.4118,0.4273,0.4256,0.4181,0.4134,0.4063,0.4055,0.3914,0.371,0.4139,0.4169,0.417,0.4172,0.4173,0.4174,0,0.2944,0.2958,0.2989,0.3012,0.3006,0.3072,0.3139,0.3125,0.3172,0.3382,0.3505,0.3699,0.3799,0.3933,0.3987,0.3854,0.366,0.3748,0.3502,0.3414,0.3872,0.3787,0.3661,0.3661,0.3661,0.3661,0.3661,0.3661,0.2899,0.2876,0.289,0.2836,0.2846,0.2784,0.2778,0.279,0.2895,0.3002,0.3123,0.3294,0.3654,0.3845,0.3775,0.3668,0.3374,0.3228,0.3195,0.3566,0.3593,0.362,0.3531,0.3354,0.3354,0.2585,0.2579,0.2575]},{"header":{"parameterUnit":"m.s-1","parameterCategory":2,"la1":30.2991,"la2":30.254,"lo1":-89.0895,"lo2":-89.0444,"dy":0.0017,"dx":0.0017,"nx":28,"ny":28,"refTime":"2024-12-02T09:00:00:Z","depth":"0","parameterNumber":3,"parameterNumberName":"V-component_of_CURRENTS"},"data":[0,0,0,0,0,0,0,0,0,0,0,0,0,0,0,0,0,0,0,0,0,0,0,0,0,0,0,0,0,0,0,0,0,0,0,0,0,0,0,0,0,0,0,0,0,0,0,0,0,0,0,0,0,0,0,0,0,0,-0.0063,-0.0064,0,-0.0148,-0.015,-0.0151,-0.0208,-0.0208,-0.0208,-0.0208,-0.0305,-0.0307,-0.0309,0,0,0,0,0,0,0,0,0,0,0,0,0,-0.0016,-0.0016,-0.0063,-0.0064,-0.0065,-0.0148,-0.015,-0.0151,-0.0208,-0.0208,-0.0208,-0.0209,-0.0304,-0.0307,-0.031,0,0,0,0,0,0,0,0,0,0,0,0,0,-0.0064,-0.0017,-0.0063,-0.0102,-0.0106,-0.0148,-0.015,-0.0151,-0.0208,-0.0208,-0.0208,-0.0209,-0.0303,-0.0306,-0.031,-0.0326,0,0,-0.0321,-0.0322,0,0,0,0,0,0,0,0,-0.0061,-0.0066,-0.0095,-0.0099,-0.0104,-0.0166,-0.0168,-0.021,-0.0208,-0.0171,-0.0208,-0.0209,-0.0258,-0.0265,-0.0283,-0.0331,-0.0335,-0.0321,-0.0323,-0.0325,-0.0326,0,0,0,0,0,0,0,-0.0058,-0.0063,-0.0099,-0.0096,-0.0101,-0.0137,-0.0144,-0.0177,-0.0214,-0.0175,-0.0178,-0.0184,-0.026,-0.028,-0.0286,-0.0336,-0.0321,-0.0324,-0.0326,-0.0328,-0.0399,-0.0398,0,0,0,0,0,0,-0.0039,-0.006,-0.0096,-0.0102,-0.008,-0.0137,-0.0145,-0.0147,-0.0213,-0.0223,-0.0184,-0.0187,-0.0274,-0.0282,-0.029,-0.0293,-0.0325,-0.0328,-0.033,-0.0399,-0.0399,-0.0398,0,0,0,0,0,0,-0.0038,-0.0041,-0.0093,-0.0081,-0.009,-0.0137,-0.014,-0.0149,-0.0163,-0.022,-0.023,-0.0188,-0.0274,-0.0285,-0.031,-0.0298,-0.033,-0.0333,-0.0399,-0.0399,-0.0398,-0.0312,0,0,0,0,0,0,-0.0036,-0.004,-0.0036,-0.008,-0.009,-0.0104,-0.014,-0.015,-0.0166,-0.017,-0.0227,-0.0236,-0.0275,-0.0304,-0.0313,-0.0303,-0.0336,-0.04,-0.0399,-0.0399,-0.0315,-0.0308,-0.0303,0,0,0,0,0,-0.0034,-0.0019,-0.0035,-0.0039,-0.0082,-0.0103,-0.0112,-0.0149,-0.0165,-0.0164,-0.0204,-0.0234,-0.0308,-0.0307,-0.0318,-0.0308,-0.04,-0.0399,-0.0399,-0.0318,-0.031,-0.0303,0,0,0,0,0,0,0.0004,-0.0025,-0.0043,-0.0038,-0.0064,-0.0112,-0.0114,-0.014,-0.0172,-0.0174,-0.023,-0.0242,-0.0262,-0.0297,-0.0294,-0.0328,-0.0359,-0.0361,-0.0294,-0.0287,-0.0281,-0.0252,-0.0339,0,0,0,0,0,0.0016,0.0018,-0.0018,-0.0014,-0.0022,-0.0067,-0.0081,-0.0103,-0.0137,-0.0152,-0.0193,-0.0235,-0.0269,-0.0286,-0.0323,-0.0338,-0.037,-0.0341,-0.0335,-0.0329,-0.0314,-0.0359,-0.0355,-0.0396,-0.0396,-0.0396,0,0,0.003,0.0016,0.0016,-0.0006,-0.003,-0.0027,-0.0076,-0.0085,-0.0085,-0.0157,-0.0167,-0.0214,-0.0269,-0.0288,-0.03,-0.0314,-0.0333,-0.0328,-0.0323,-0.0311,-0.0358,-0.0354,-0.035,-0.0396,-0.0396,-0.0396,0,0,0.007,0.0051,0.0069,0.0054,0.0031,0.0007,0.001,-0.0031,-0.005,-0.007,-0.012,-0.0155,-0.0209,-0.0244,-0.0269,-0.0252,-0.0301,-0.0267,-0.0211,-0.0255,-0.0252,-0.0249,-0.0275,-0.0276,-0.0263,-0.0263,-0.0263,0,0.0089,0.0107,0.007,0.0085,0.0085,0.0031,0.0055,0.0025,-0.0019,-0.0026,-0.0059,-0.0137,-0.0186,-0.0207,-0.0205,-0.0236,-0.0264,-0.0232,-0.0246,-0.0244,-0.0243,-0.027,-0.0272,-0.0258,-0.0259,-0.0259,-0.026,0,0.0141,0.0156,0.0167,0.017,0.0164,0.0175,0.0139,0.0127,0.0094,0.0063,0.003,-0.0046,-0.0088,-0.0117,-0.0157,-0.017,-0.0194,-0.0233,-0.0258,-0.0233,-0.0264,-0.0267,-0.0252,-0.0254,-0.0255,-0.0256,0,0,0.019,0.0203,0.0208,0.0231,0.0214,0.022,0.0222,0.0213,0.0227,0.0158,0.0163,0.0081,0.0036,0.0005,-0.0059,-0.0102,-0.0124,-0.0155,-0.016,-0.017,-0.0207,-0.022,-0.0225,-0.0168,-0.0168,-0.0168,-0.0228,0,0.0245,0.0302,0.0289,0.0343,0.0373,0.0333,0.034,0.0321,0.0295,0.0283,0.0192,0.0169,0.0083,0.0066,0.0008,-0.0088,-0.013,-0.0103,-0.024,-0.0243,-0.0249,-0.0229,-0.0204,-0.0255,-0.0231,-0.0232,-0.0232,0,0.0308,0.0339,0.0404,0.0441,0.0449,0.0464,0.0484,0.0489,0.0452,0.0429,0.0382,0.0311,0.0242,0.0159,0.0012,0.0034,-0.0072,-0.0157,-0.0162,-0.0204,-0.0262,-0.0281,-0.0263,-0.0463,-0.0238,-0.0238,-0.0237,0,0.0374,0.0426,0.0484,0.0495,0.0517,0.0535,0.0546,0.0533,0.0567,0.0529,0.0543,0.0433,0.0395,0.0241,0.0062,0.0039,-0.0102,-0.0159,-0.027,-0.0272,-0.0291,-0.0294,-0.0472,-0.0261,-0.0261,-0.026,-0.026,0,0.0445,0.0492,0.0519,0.0549,0.0624,0.0609,0.0685,0.0674,0.069,0.0747,0.0628,0.0646,0.0413,0.0299,0.0113,-0.0075,-0.0064,-0.0247,-0.0287,-0.026,-0.0259,-0.0468,-0.0603,-0.0263,-0.0262,-0.0262,-0.0261,0,0.0509,0.0522,0.0596,0.0636,0.0657,0.0712,0.0792,0.0851,0.0841,0.0912,0.0907,0.0818,0.0675,0.0436,0.0199,0.0017,-0.0299,-0.0254,-0.0197,-0.0229,-0.0522,-0.0651,-0.0888,-0.0968,-0.038,-0.038,-0.0381,0,0.0547,0.0591,0.0669,0.0726,0.0747,0.083,0.0895,0.0924,0.1006,0.1028,0.1078,0.0964,0.0918,0.0569,0.0226,-0.0091,-0.031,-0.029,-0.0339,-0.0523,-0.0699,-0.08,-0.0857,-0.0331,-0.0331,-0.0331,-0.0331,0,0.0624,0.0645,0.0707,0.0824,0.0905,0.1015,0.1112,0.1203,0.1244,0.1309,0.1373,0.1338,0.1003,0.0711,0.026,0.0019,-0.0437,-0.0302,-0.0516,-0.0689,-0.0789,-0.0887,-0.03,-0.0332,-0.0332,-0.0332,-0.0331,-0.0331,0.068,0.074,0.0821,0.0936,0.1038,0.1177,0.1287,0.1407,0.1553,0.1658,0.1611,0.161,0.1148,0.0554,0.0199,-0.0427,-0.0458,-0.0616,-0.0759,-0.0844,-0.0927,-0.0328,-0.0395,-0.0395,-0.0395,-0.0396,-0.0396,0,0.0756,0.0822,0.0931,0.1066,0.1194,0.1233,0.1419,0.1542,0.173,0.1835,0.1896,0.1689,0.1126,0.0523,-0.0316,-0.0779,-0.0958,-0.1054,-0.1201,-0.1237,-0.0717,-0.0718,-0.0828,-0.0828,-0.0828,-0.0828,-0.0828,-0.0827,0.0794,0.0908,0.0962,0.1173,0.1275,0.1457,0.1571,0.1752,0.1884,0.2032,0.2055,0.2026,0.1564,0.0037,-0.099,-0.1239,-0.1579,-0.1682,-0.1843,-0.1504,-0.1474,-0.1446,-0.1477,-0.1745,-0.1746,-0.2271,-0.2277,-0.2281]}],[{"header":{"parameterUnit":"m.s-1","parameterCategory":2,"la1":30.2991,"la2":30.254,"lo1":-89.0895,"lo2":-89.0444,"dy":0.0017,"dx":0.0017,"nx":28,"ny":28,"refTime":"2024-12-02T09:00:00:Z","depth":"2","parameterNumber":2,"parameterNumberName":"U-component_of_CURRENTS"},"data":[0,0,0,0,0,0,0,0,0,0,0,0,0,0,0,0,0,0,0,0,0,0,0,0,0,0,0,0,0,0,0,0,0,0,0,0,0,0,0,0,0,0,0,0,0,0,0,0,0,0,0,0,0,0,0,0,0,0,0.3199,0.3199,0,0.3235,0.3235,0.3235,0.3233,0.3233,0.3232,0.3232,0.3234,0.3234,0.3234,0,0,0,0,0,0,0,0,0,0,0,0,0,0.3132,0.3133,0.3199,0.32,0.32,0.3235,0.3235,0.3235,0.3233,0.3233,0.3232,0.3232,0.3234,0.3234,0.3234,0,0,0,0,0,0,0,0,0,0,0,0,0,0.3161,0.3133,0.3199,0.3206,0.3207,0.3235,0.3235,0.3235,0.3233,0.3233,0.3232,0.3232,0.3234,0.3234,0.3234,0.3243,0,0,0.3236,0.3236,0,0,0,0,0,0,0,0,0.3159,0.3163,0.3204,0.3205,0.3207,0.3232,0.3212,0.3237,0.3233,0.322,0.3232,0.3232,0.3232,0.3233,0.3236,0.3244,0.3244,0.3236,0.3236,0.3236,0.3236,0,0,0,0,0,0,0,0.3157,0.3161,0.321,0.3205,0.3207,0.3209,0.3212,0.3217,0.3224,0.3221,0.3222,0.3231,0.3232,0.3236,0.3236,0.3244,0.3236,0.3236,0.3236,0.3236,0.3317,0.3319,0,0,0,0,0,0,0.316,0.3159,0.3209,0.3211,0.3185,0.3211,0.3214,0.3221,0.3225,0.3226,0.3231,0.3231,0.3235,0.3236,0.3236,0.3294,0.3236,0.3236,0.3237,0.3316,0.3318,0.332,0,0,0,0,0,0,0.3158,0.3164,0.3207,0.3189,0.3195,0.3212,0.3221,0.3222,0.3237,0.3234,0.3234,0.3246,0.3235,0.3236,0.326,0.3292,0.3237,0.3237,0.3313,0.3316,0.3319,0.3379,0,0,0,0,0,0,0.3156,0.3163,0.3171,0.3189,0.3196,0.3236,0.3221,0.3224,0.3245,0.3245,0.3246,0.3245,0.3235,0.326,0.326,0.3291,0.3237,0.3311,0.3315,0.3318,0.3375,0.3384,0.3391,0,0,0,0,0,0.3153,0.3166,0.3171,0.3177,0.3206,0.3237,0.3241,0.3249,0.3246,0.3259,0.3265,0.3246,0.3283,0.3262,0.3262,0.3294,0.3309,0.3314,0.3318,0.3371,0.3382,0.3391,0,0,0,0,0,0,0.3139,0.3168,0.3173,0.3194,0.322,0.3238,0.3254,0.3259,0.3275,0.3277,0.3266,0.3266,0.3304,0.3293,0.3269,0.333,0.3295,0.33,0.3336,0.3346,0.3354,0.3371,0.3237,0,0,0,0,0,0.3141,0.316,0.3188,0.3206,0.3222,0.324,0.3254,0.3265,0.3281,0.3287,0.329,0.33,0.3322,0.3327,0.3342,0.3368,0.3384,0.3392,0.34,0.3407,0.3423,0.3485,0.35,0.3334,0.3334,0.3334,0,0,0.3139,0.316,0.3169,0.3205,0.3224,0.3254,0.3248,0.3279,0.3307,0.3285,0.332,0.3331,0.3338,0.3375,0.339,0.3367,0.3463,0.3413,0.3419,0.3431,0.3491,0.3507,0.3521,0.3337,0.3337,0.3336,0,0,0.3148,0.3168,0.3186,0.3214,0.3255,0.3271,0.3285,0.3315,0.3333,0.3367,0.337,0.3405,0.3418,0.3442,0.3452,0.3517,0.3511,0.3518,0.3566,0.3625,0.364,0.3652,0.3692,0.3708,0.3515,0.3515,0.3515,0,0.3143,0.3173,0.3197,0.3228,0.3257,0.3282,0.3314,0.3341,0.3375,0.3401,0.3386,0.3454,0.3455,0.3521,0.3544,0.3537,0.3562,0.3523,0.3637,0.3649,0.3661,0.3699,0.3716,0.3519,0.3518,0.3518,0.3518,0,0.3167,0.3197,0.3215,0.3262,0.3295,0.3331,0.3374,0.3408,0.3429,0.3456,0.3527,0.3543,0.3583,0.3593,0.3584,0.3676,0.3664,0.3644,0.3609,0.3682,0.3716,0.3733,0.3524,0.3522,0.3521,0.3521,0,0,0.3137,0.3215,0.322,0.3248,0.3319,0.3343,0.3407,0.347,0.352,0.3555,0.3624,0.3669,0.3686,0.3701,0.3708,0.3757,0.3857,0.3738,0.374,0.3774,0.3984,0.392,0.3931,0.3858,0.3861,0.3864,0.3973,0,0.3148,0.32,0.3246,0.3301,0.3333,0.3392,0.345,0.3512,0.3569,0.3641,0.3687,0.3754,0.3725,0.3759,0.3806,0.3854,0.3903,0.3828,0.3912,0.3915,0.3846,0.3949,0.3623,0.3689,0.3989,0.3992,0.3994,0,0.3152,0.3189,0.3241,0.3324,0.3346,0.3385,0.3488,0.3546,0.366,0.3717,0.3797,0.3835,0.3928,0.3888,0.4005,0.396,0.3982,0.4007,0.4011,0.3944,0.3881,0.3666,0.3707,0.402,0.4018,0.4016,0.4014,0,0.3102,0.3183,0.3222,0.325,0.3348,0.3388,0.3444,0.3559,0.3634,0.3775,0.3845,0.3949,0.4014,0.407,0.411,0.4074,0.4232,0.4181,0.4144,0.4139,0.3874,0.384,0.427,0.427,0.427,0.427,0.4269,0,0.3088,0.3117,0.3198,0.3215,0.3274,0.3355,0.3443,0.3529,0.3673,0.3761,0.3873,0.3961,0.4066,0.4152,0.4168,0.4215,0.4278,0.4185,0.4179,0.3885,0.3853,0.4143,0.4127,0.4274,0.4273,0.4272,0.4271,0,0.3027,0.3081,0.3126,0.3219,0.3249,0.3287,0.3429,0.3497,0.3647,0.3772,0.3824,0.4007,0.4123,0.4206,0.4319,0.4288,0.4339,0.4332,0.3978,0.3928,0.4188,0.4174,0.4313,0.4312,0.4311,0.4311,0.431,0,0.2999,0.3015,0.3103,0.3124,0.3165,0.3241,0.3299,0.3464,0.3545,0.3775,0.3821,0.4005,0.41,0.4259,0.4257,0.4304,0.4351,0.4008,0.3881,0.4222,0.4201,0.4188,0.4175,0.3548,0.3541,0.3536,0.3531,0,0.2943,0.2975,0.3007,0.3056,0.3104,0.3163,0.3254,0.3317,0.3503,0.3617,0.3758,0.3866,0.4041,0.3958,0.4046,0.4016,0.3977,0.3899,0.4364,0.3595,0.3511,0.3488,0.3498,0.3482,0.3487,0.3491,0.3493,0.3495,0.2891,0.2896,0.2937,0.2973,0.3022,0.3047,0.3053,0.3159,0.3255,0.3367,0.3558,0.3602,0.3688,0.3663,0.3579,0.3514,0.3784,0.3591,0.3603,0.3623,0.3522,0.3442,0.338,0.3384,0.3388,0.3391,0.3394,0,0.281,0.2824,0.2852,0.2873,0.2865,0.2936,0.299,0.2959,0.2988,0.313,0.322,0.3017,0.3009,0.3082,0.2927,0.2965,0.2891,0.2826,0.2677,0.2732,0.2779,0.2628,0.2253,0.2249,0.2245,0.2241,0,0,0.2767,0.2744,0.2754,0.2699,0.2713,0.2651,0.2642,0.2619,0.2664,0.2639,0.2637,0.2872,0.3008,0.2571,0.2545,0.2363,0.2515,0.2276,0.3203,0.3082,0.3124,0.3249,0.3085,0,0,0,0,0]},{"header":{"parameterUnit":"m.s-1","parameterCategory":2,"la1":30.2991,"la2":30.254,"lo1":-89.0895,"lo2":-89.0444,"dy":0.0017,"dx":0.0017,"nx":28,"ny":28,"refTime":"2024-12-02T09:00:00:Z","depth":"2","parameterNumber":3,"parameterNumberName":"V-component_of_CURRENTS"},"data":[0,0,0,0,0,0,0,0,0,0,0,0,0,0,0,0,0,0,0,0,0,0,0,0,0,0,0,0,0,0,0,0,0,0,0,0,0,0,0,0,0,0,0,0,0,0,0,0,0,0,0,0,0,0,0,0,0,0,0.0058,0.0058,0,-0.0021,-0.0022,-0.0023,-0.0078,-0.0078,-0.0079,-0.0079,-0.0169,-0.0171,-0.0173,0,0,0,0,0,0,0,0,0,0,0,0,0,0.0102,0.0101,0.0058,0.0058,0.0057,-0.002,-0.0022,-0.0023,-0.0078,-0.0078,-0.0079,-0.0079,-0.0168,-0.017,-0.0173,0,0,0,0,0,0,0,0,0,0,0,0,0,0.0057,0.0101,0.0058,0.0021,0.0017,-0.002,-0.0022,-0.0023,-0.0078,-0.0078,-0.0079,-0.0079,-0.0167,-0.017,-0.0173,-0.0185,0,0,-0.0183,-0.0185,0,0,0,0,0,0,0,0,0.006,0.0056,0.0028,0.0024,0.0019,-0.0038,-0.0039,-0.0077,-0.0078,-0.0044,-0.0079,-0.0079,-0.0125,-0.0131,-0.0148,-0.0189,-0.0193,-0.0183,-0.0185,-0.0187,-0.0188,0,0,0,0,0,0,0,0.0063,0.0058,0.0025,0.0027,0.0022,-0.0012,-0.0018,-0.0047,-0.0083,-0.0047,-0.0051,-0.0056,-0.0127,-0.0144,-0.015,-0.0195,-0.0183,-0.0186,-0.0188,-0.0189,-0.0252,-0.0252,0,0,0,0,0,0,0.008,0.0062,0.0028,0.0023,0.0041,-0.0012,-0.0019,-0.0021,-0.0082,-0.0091,-0.0056,-0.0059,-0.0139,-0.0146,-0.0154,-0.0156,-0.0187,-0.019,-0.0192,-0.0252,-0.0252,-0.0252,0,0,0,0,0,0,0.0081,0.0078,0.0031,0.0042,0.0033,-0.0012,-0.0014,-0.0022,-0.0037,-0.0089,-0.0098,-0.0061,-0.0139,-0.0149,-0.0172,-0.016,-0.0191,-0.0194,-0.0253,-0.0252,-0.0252,-0.017,0,0,0,0,0,0,0.0083,0.0079,0.0083,0.0043,0.0034,0.0021,-0.0013,-0.0023,-0.0039,-0.0043,-0.0096,-0.0105,-0.014,-0.0167,-0.0175,-0.0165,-0.0197,-0.0253,-0.0252,-0.0252,-0.0173,-0.0167,-0.0161,0,0,0,0,0,0.0085,0.0099,0.0084,0.0079,0.0041,0.0022,0.0014,-0.0022,-0.0039,-0.0038,-0.0075,-0.0103,-0.017,-0.0169,-0.0179,-0.0169,-0.0253,-0.0253,-0.0252,-0.0175,-0.0168,-0.0161,0,0,0,0,0,0,0.0119,0.0093,0.0076,0.0081,0.0057,0.0013,0.0011,-0.0014,-0.0044,-0.0047,-0.0099,-0.011,-0.0127,-0.016,-0.0158,-0.0187,-0.0217,-0.0218,-0.0155,-0.0149,-0.0143,-0.0117,-0.0199,0,0,0,0,0,0.013,0.0133,0.01,0.0103,0.0095,0.0054,0.0041,0.0019,-0.0012,-0.0026,-0.0064,-0.0103,-0.0134,-0.0149,-0.0182,-0.0195,-0.0226,-0.0197,-0.0191,-0.0186,-0.0172,-0.0214,-0.021,-0.025,-0.025,-0.025,0,0,0.0143,0.013,0.013,0.011,0.0088,0.0092,0.0045,0.0035,0.0037,-0.003,-0.004,-0.0084,-0.0133,-0.0149,-0.016,-0.0173,-0.0191,-0.0185,-0.018,-0.0169,-0.0212,-0.0208,-0.0205,-0.0249,-0.0249,-0.0249,0,0,0.018,0.0161,0.0178,0.0166,0.0144,0.0122,0.0124,0.0086,0.0068,0.005,0.0003,-0.0029,-0.0078,-0.0108,-0.013,-0.0112,-0.0161,-0.0127,-0.0074,-0.0115,-0.0111,-0.0109,-0.014,-0.0141,-0.0122,-0.0122,-0.0122,0,0.0196,0.0215,0.018,0.0194,0.0196,0.0144,0.0167,0.0141,0.0099,0.0093,0.006,-0.0011,-0.0056,-0.0071,-0.0068,-0.0097,-0.0127,-0.0094,-0.0106,-0.0104,-0.0103,-0.0136,-0.0138,-0.0118,-0.0119,-0.0119,-0.012,0,0.0246,0.026,0.0271,0.0275,0.0271,0.0282,0.0249,0.0237,0.0205,0.0177,0.0147,0.0076,0.0038,0.0012,-0.0023,-0.0034,-0.006,-0.0093,-0.0118,-0.0093,-0.013,-0.0134,-0.0113,-0.0114,-0.0115,-0.0116,0,0,0.0289,0.0305,0.0309,0.0332,0.0318,0.0325,0.0328,0.0322,0.0335,0.0269,0.0274,0.0201,0.0157,0.0129,0.0071,0.0031,0.0007,-0.002,-0.0024,-0.0041,-0.0076,-0.0095,-0.0101,-0.0031,-0.0031,-0.0031,-0.0104,0,0.0341,0.0397,0.0387,0.0441,0.047,0.0433,0.0442,0.0426,0.0401,0.039,0.0305,0.0284,0.0203,0.0187,0.0133,0.0042,0.0,0.003,-0.0106,-0.011,-0.0121,-0.0105,-0.0077,-0.0139,-0.0107,-0.0108,-0.0109,0,0.04,0.0432,0.0496,0.0535,0.0543,0.0559,0.058,0.0587,0.0552,0.053,0.0485,0.0418,0.0352,0.0275,0.0133,0.0155,0.0053,-0.0029,-0.0034,-0.0079,-0.0135,-0.0161,-0.0148,-0.0115,-0.0115,-0.0114,-0.0114,0,0.0461,0.0514,0.0572,0.0583,0.0609,0.0626,0.0639,0.0628,0.0661,0.0626,0.0637,0.0533,0.0493,0.0347,0.0173,0.0155,0.0012,-0.0036,-0.015,-0.0153,-0.0169,-0.0172,-0.0135,-0.0134,-0.0134,-0.0134,-0.0134,0,0.0528,0.0575,0.0604,0.0634,0.0708,0.0696,0.077,0.0761,0.0777,0.083,0.0718,0.0731,0.0509,0.0396,0.0219,0.0032,0.0045,-0.0131,-0.017,-0.014,-0.014,-0.0154,-0.0155,-0.0137,-0.0136,-0.0136,-0.0135,0,0.0587,0.0602,0.0675,0.0717,0.0738,0.0791,0.0871,0.0929,0.0919,0.0985,0.098,0.0889,0.0743,0.0514,0.0284,0.0111,-0.008,-0.0152,-0.0097,-0.0129,-0.023,-0.0226,-0.0281,-0.0282,-0.0283,-0.0284,-0.0285,0,0.0623,0.0666,0.0744,0.0799,0.0821,0.0902,0.0967,0.0997,0.1075,0.109,0.1133,0.1015,0.0958,0.0614,0.0288,-0.002,-0.0069,-0.0202,-0.0238,-0.0211,-0.0244,-0.0239,-0.0234,-0.0229,-0.023,-0.023,-0.023,0,0.0695,0.0717,0.0777,0.0891,0.097,0.1078,0.1171,0.1255,0.1295,0.135,0.1394,0.1348,0.1016,0.0718,0.0285,0.0071,-0.0154,-0.0215,-0.0201,-0.0193,-0.0167,-0.0198,-0.0194,-0.0231,-0.0231,-0.0231,-0.0231,-0.0231,0.0748,0.0805,0.0884,0.0995,0.1095,0.1227,0.1332,0.144,0.1571,0.1641,0.1591,0.1522,0.1165,0.0627,0.0248,-0.0162,-0.0143,-0.029,-0.0288,-0.0285,-0.0263,-0.024,-0.0313,-0.0313,-0.0314,-0.0314,-0.0314,0,0.0819,0.0882,0.0987,0.1117,0.1239,0.128,0.1455,0.1559,0.1718,0.1764,0.1792,0.1459,0.1116,0.0695,0.0097,-0.0252,-0.0286,-0.0369,-0.0331,-0.0326,-0.0323,-0.0301,-0.0363,-0.0364,-0.0365,-0.0366,0,0,0.0854,0.0962,0.1015,0.1213,0.1312,0.1484,0.159,0.1732,0.181,0.1865,0.1822,0.1735,0.1236,0.0803,0.0324,-0.0023,-0.0099,-0.0097,-0.002,0.0087,0.0094,-0.0238,-0.0194,0,0,0,0,0]}],[{"header":{"parameterUnit":"m.s-1","parameterCategory":2,"la1":30.2991,"la2":30.254,"lo1":-89.0895,"lo2":-89.0444,"dy":0.0017,"dx":0.0017,"nx":28,"ny":28,"refTime":"2024-12-02T09:00:00:Z","depth":"4","parameterNumber":2,"parameterNumberName":"U-component_of_CURRENTS"},"data":[0,0,0,0,0,0,0,0,0,0,0,0,0,0,0,0,0,0,0,0,0,0,0,0,0,0,0,0,0,0,0,0,0,0,0,0,0,0,0,0,0,0,0,0,0,0,0,0,0,0,0,0,0,0,0,0,0,0,0.2122,0.2123,0,0.2198,0.2198,0.2199,0.2265,0.2266,0.2267,0.2268,0.2351,0.2352,0.2353,0,0,0,0,0,0,0,0,0,0,0,0,0,0.2022,0.2023,0.2122,0.2123,0.2124,0.2198,0.2198,0.2199,0.2265,0.2266,0.2267,0.2269,0.235,0.2352,0.2353,0,0,0,0,0,0,0,0,0,0,0,0,0,0.2076,0.2024,0.2122,0.2168,0.2173,0.2197,0.2198,0.2199,0.2265,0.2266,0.2268,0.2269,0.235,0.2352,0.2353,0.2337,0,0,0.2359,0.236,0,0,0,0,0,0,0,0,0.2073,0.208,0.216,0.2165,0.217,0.2226,0.2194,0.2246,0.2265,0.2228,0.2268,0.227,0.231,0.2315,0.2323,0.234,0.2344,0.236,0.2361,0.2362,0.2362,0,0,0,0,0,0,0,0.2069,0.2077,0.215,0.2161,0.2167,0.218,0.2189,0.2204,0.2258,0.2231,0.2236,0.2248,0.2313,0.2321,0.2325,0.2345,0.236,0.2361,0.2362,0.2363,0.2495,0.2497,0,0,0,0,0,0,0.2064,0.2073,0.2148,0.2152,0.2127,0.2181,0.2191,0.2205,0.2258,0.2268,0.2247,0.2251,0.2317,0.2323,0.2328,0.2436,0.2362,0.2363,0.2365,0.2492,0.2495,0.2498,0,0,0,0,0,0,0.2061,0.2069,0.2145,0.2116,0.2127,0.2182,0.2196,0.2205,0.2262,0.227,0.228,0.2299,0.2318,0.2326,0.2388,0.2435,0.2364,0.2366,0.2489,0.2493,0.2496,0.2571,0,0,0,0,0,0,0.2058,0.2068,0.2097,0.2116,0.2128,0.219,0.2195,0.2206,0.2264,0.2272,0.2317,0.2324,0.232,0.2385,0.2389,0.2436,0.2368,0.2487,0.2491,0.2495,0.2566,0.2577,0.2586,0,0,0,0,0,0.2054,0.208,0.2098,0.2108,0.2159,0.2191,0.22,0.2241,0.2266,0.2296,0.2334,0.2325,0.2416,0.2388,0.2393,0.2442,0.2484,0.249,0.2495,0.2561,0.2575,0.2586,0,0,0,0,0,0,0.2053,0.209,0.211,0.2148,0.2183,0.2204,0.2243,0.2267,0.2319,0.2343,0.235,0.2359,0.2432,0.2427,0.2397,0.2494,0.2451,0.2457,0.2499,0.2512,0.2522,0.2526,0.2369,0,0,0,0,0,0.2065,0.21,0.2129,0.2167,0.2188,0.2225,0.2253,0.2282,0.2319,0.2346,0.2377,0.2414,0.2448,0.2474,0.25,0.2548,0.2553,0.2586,0.2596,0.2604,0.2613,0.2658,0.2673,0.2515,0.2515,0.2515,0,0,0.2075,0.2102,0.2124,0.2171,0.2205,0.2239,0.2247,0.2304,0.2347,0.2344,0.2428,0.2454,0.2471,0.2531,0.2563,0.2539,0.2656,0.2611,0.2618,0.2622,0.2665,0.268,0.2694,0.2518,0.2518,0.2517,0,0,0.2097,0.2141,0.2172,0.2206,0.2265,0.2285,0.2312,0.2361,0.2406,0.2471,0.2489,0.2548,0.2596,0.262,0.2635,0.2717,0.271,0.2733,0.2787,0.2831,0.2844,0.2855,0.2891,0.2905,0.2736,0.2736,0.2736,0,0.2112,0.2152,0.2188,0.2225,0.2262,0.231,0.2351,0.2394,0.2463,0.2502,0.2514,0.2616,0.2635,0.2704,0.2739,0.274,0.2762,0.2736,0.2843,0.2855,0.2865,0.2899,0.2914,0.274,0.274,0.2739,0.2739,0,0.2139,0.2191,0.2217,0.2279,0.2322,0.2371,0.2426,0.2488,0.2545,0.2582,0.2682,0.2717,0.2775,0.2796,0.2795,0.2886,0.2877,0.2851,0.2808,0.2885,0.2917,0.293,0.2746,0.2745,0.2744,0.2743,0,0,0.2118,0.2217,0.2231,0.2271,0.236,0.2389,0.2476,0.2552,0.2618,0.2692,0.2775,0.2846,0.2879,0.2899,0.2917,0.2959,0.3057,0.2948,0.2948,0.2976,0.3162,0.296,0.2955,0.3054,0.3057,0.3059,0.3157,0,0.2134,0.2203,0.2256,0.2335,0.2374,0.2453,0.2524,0.2605,0.2684,0.2776,0.2836,0.2924,0.2914,0.2967,0.3008,0.3052,0.3096,0.3033,0.3089,0.3091,0.2895,0.2964,0.3068,0.3167,0.3171,0.3173,0.3174,0,0.2132,0.2184,0.2261,0.2365,0.2393,0.2454,0.2581,0.2653,0.2783,0.2853,0.2948,0.3001,0.3101,0.3075,0.3182,0.3147,0.3169,0.3186,0.3189,0.298,0.2912,0.3073,0.3199,0.3197,0.3195,0.3193,0.3192,0,0.2073,0.2183,0.2247,0.2284,0.2408,0.2474,0.2551,0.2682,0.2761,0.2921,0.2995,0.3104,0.3184,0.3231,0.3276,0.3249,0.3372,0.333,0.3166,0.3153,0.3272,0.3258,0.3399,0.3399,0.3399,0.3399,0.3399,0,0.2041,0.2098,0.2233,0.2265,0.2355,0.2456,0.2571,0.2669,0.2821,0.2904,0.3037,0.3108,0.3232,0.3305,0.3321,0.3283,0.3411,0.3187,0.3164,0.3303,0.3292,0.3282,0.3267,0.3402,0.3402,0.3401,0.34,0,0.1959,0.205,0.2131,0.2276,0.233,0.2396,0.2574,0.2645,0.281,0.2927,0.2988,0.3154,0.324,0.3327,0.3418,0.3321,0.3319,0.3274,0.344,0.3424,0.3062,0.3051,0.3092,0.3086,0.308,0.3076,0.3072,0,0.1916,0.1953,0.2119,0.2169,0.2245,0.2365,0.2441,0.2624,0.2693,0.2914,0.2941,0.3106,0.3186,0.3151,0.3259,0.3278,0.3236,0.3217,0.3111,0.3057,0.3032,0.3029,0.3024,0.3064,0.3062,0.3061,0.3059,0,0.1833,0.1916,0.1981,0.2088,0.2179,0.2261,0.2381,0.2417,0.2608,0.2784,0.2827,0.2874,0.2962,0.3016,0.3063,0.3064,0.3215,0.316,0.3169,0.307,0.3023,0.3002,0.3005,0.3041,0.3043,0.3045,0.3046,0,0.1777,0.1801,0.1901,0.1976,0.2083,0.2113,0.2197,0.2264,0.2355,0.2584,0.2593,0.2759,0.2924,0.2907,0.2945,0.2938,0.2883,0.2775,0.2804,0.2826,0.2691,0.2589,0.2462,0,0,0,0,0,0.1703,0.1713,0.1776,0.1842,0.1941,0.1998,0.2131,0.2215,0.2396,0.2357,0.2466,0.2531,0.2583,0.2675,0.2614,0.2836,0.2903,0.2752,0.2795,0.2937,0.2959,0.2823,0,0,0,0,0,0,0.1651,0.1706,0.1724,0.1713,0.1732,0.1813,0.1887,0.2008,0.1991,0.2186,0.2226,0.2377,0.247,0.2592,0.2565,0.2594,0.2568,0.2865,0.2859,0.2925,0.2945,0.2962,0.283,0,0,0,0,0]},{"header":{"parameterUnit":"m.s-1","parameterCategory":2,"la1":30.2991,"la2":30.254,"lo1":-89.0895,"lo2":-89.0444,"dy":0.0017,"dx":0.0017,"nx":28,"ny":28,"refTime":"2024-12-02T09:00:00:Z","depth":"4","parameterNumber":3,"parameterNumberName":"V-component_of_CURRENTS"},"data":[0,0,0,0,0,0,0,0,0,0,0,0,0,0,0,0,0,0,0,0,0,0,0,0,0,0,0,0,0,0,0,0,0,0,0,0,0,0,0,0,0,0,0,0,0,0,0,0,0,0,0,0,0,0,0,0,0,0,0.013,0.013,0,0.0078,0.0078,0.0077,0.004,0.004,0.0039,0.0039,-0.0025,-0.0026,-0.0028,0,0,0,0,0,0,0,0,0,0,0,0,0,0.0157,0.0157,0.013,0.013,0.0129,0.0078,0.0078,0.0077,0.004,0.004,0.0039,0.0039,-0.0024,-0.0026,-0.0028,0,0,0,0,0,0,0,0,0,0,0,0,0,0.0129,0.0157,0.013,0.0105,0.0103,0.0079,0.0078,0.0077,0.004,0.004,0.0039,0.0039,-0.0024,-0.0026,-0.0028,-0.0036,0,0,-0.0035,-0.0036,0,0,0,0,0,0,0,0,0.013,0.0128,0.011,0.0107,0.0104,0.0066,0.0064,0.0039,0.004,0.0062,0.0039,0.0039,0.0006,0.0001,-0.001,-0.0039,-0.0042,-0.0035,-0.0037,-0.0038,-0.0038,0,0,0,0,0,0,0,0.0132,0.0129,0.0108,0.0109,0.0106,0.0083,0.0079,0.0059,0.0035,0.0061,0.0058,0.0054,0.0004,-0.0007,-0.0012,-0.0043,-0.0035,-0.0037,-0.0039,-0.004,-0.0083,-0.0083,0,0,0,0,0,0,0.0144,0.0132,0.011,0.0107,0.0118,0.0083,0.0079,0.0078,0.0036,0.0029,0.0055,0.0053,-0.0003,-0.0009,-0.0014,-0.0012,-0.0038,-0.004,-0.0041,-0.0084,-0.0083,-0.0083,0,0,0,0,0,0,0.0144,0.0142,0.0112,0.0119,0.0113,0.0084,0.0083,0.0077,0.0068,0.0031,0.0025,0.0052,-0.0004,-0.0011,-0.0026,-0.0016,-0.0041,-0.0043,-0.0084,-0.0084,-0.0083,-0.0018,0,0,0,0,0,0,0.0146,0.0143,0.0148,0.012,0.0114,0.0106,0.0083,0.0076,0.0067,0.0064,0.0027,0.0021,-0.0005,-0.0022,-0.0028,-0.0019,-0.0045,-0.0084,-0.0084,-0.0083,-0.002,-0.0015,-0.0011,0,0,0,0,0,0.0147,0.0157,0.0148,0.0146,0.0121,0.0107,0.0102,0.0078,0.0067,0.0068,0.0044,0.0022,-0.0024,-0.0024,-0.0031,-0.0022,-0.0084,-0.0084,-0.0083,-0.0022,-0.0016,-0.0011,0,0,0,0,0,0,0.017,0.0154,0.0143,0.0148,0.0132,0.0101,0.0101,0.0084,0.0065,0.0063,0.0026,0.0019,0.0007,-0.0017,-0.0015,-0.0035,-0.0059,-0.006,-0.001,-0.0005,-0.0,0.0021,-0.0047,0,0,0,0,0,0.0179,0.0183,0.016,0.0164,0.0159,0.0131,0.0123,0.0108,0.0087,0.0078,0.0051,0.0024,0.0003,-0.0007,-0.0031,-0.0039,-0.0068,-0.004,-0.0035,-0.0031,-0.0019,-0.0055,-0.0052,-0.0082,-0.0082,-0.0082,0,0,0.0189,0.0181,0.0182,0.017,0.0156,0.016,0.0126,0.012,0.0124,0.0075,0.0071,0.0039,0.0004,-0.0006,-0.0013,-0.0023,-0.0039,-0.003,-0.0026,-0.0017,-0.0054,-0.0051,-0.0049,-0.0081,-0.0082,-0.0082,0,0,0.0216,0.0205,0.0219,0.0211,0.0198,0.0183,0.0186,0.0159,0.0148,0.0138,0.0104,0.0082,0.0048,0.0027,0.0012,0.0027,-0.0015,0.0015,0.0058,0.0023,0.0026,0.0027,-0.0009,-0.0011,0.0019,0.0019,0.0019,0,0.0228,0.0244,0.022,0.0232,0.0236,0.02,0.0219,0.0202,0.0174,0.0172,0.0147,0.0098,0.0066,0.0057,0.0061,0.0039,0.001,0.0043,0.003,0.0032,0.0032,-0.0006,-0.0009,0.0022,0.0022,0.0022,0.0021,0,0.0264,0.0279,0.0287,0.0294,0.0294,0.0304,0.0282,0.0276,0.0256,0.0237,0.0218,0.0166,0.0141,0.0121,0.0097,0.0089,0.0063,0.004,0.0021,0.0039,-0.0002,-0.0007,0.0027,0.0026,0.0025,0.0024,0,0,0.0291,0.0311,0.0315,0.0336,0.0331,0.0338,0.0345,0.0345,0.0359,0.0311,0.0318,0.0267,0.0235,0.0215,0.0172,0.0139,0.0113,0.0099,0.0095,0.0071,0.0034,0.0018,0.0011,0.0087,0.0087,0.0087,0.0002,0,0.033,0.0375,0.0372,0.0419,0.0443,0.0422,0.0434,0.0427,0.0412,0.0406,0.0343,0.0331,0.0272,0.0261,0.0218,0.0143,0.0106,0.0139,0.0013,0.001,-0.0,0.0007,0.0086,-0.0001,-0.0002,-0.0003,-0.0004,0,0.0369,0.0397,0.0452,0.0492,0.0501,0.052,0.0545,0.0555,0.0533,0.0519,0.0487,0.0436,0.0384,0.0327,0.0206,0.0229,0.0144,0.0075,0.007,0.0032,-0.0014,-0.0025,-0.0012,-0.0012,-0.0011,-0.001,-0.001,0,0.0407,0.0457,0.0509,0.052,0.0551,0.0573,0.0591,0.0591,0.062,0.0598,0.0606,0.0524,0.049,0.0371,0.0227,0.0218,0.0084,0.0052,-0.0046,-0.0049,-0.0038,-0.0039,-0.0032,-0.0032,-0.0031,-0.0031,-0.0031,0,0.0449,0.0492,0.0533,0.0558,0.0627,0.0628,0.0696,0.0695,0.0713,0.0753,0.0673,0.0671,0.0501,0.0399,0.0256,0.0095,0.0103,-0.0033,-0.0068,-0.001,-0.0007,-0.0042,-0.0042,-0.0034,-0.0034,-0.0033,-0.0032,0,0.0481,0.0504,0.0571,0.0621,0.0647,0.0696,0.0777,0.0825,0.0827,0.0873,0.0871,0.0787,0.0652,0.0471,0.0276,0.0146,-0.0015,-0.0076,0.0005,-0.0026,-0.0134,-0.013,-0.019,-0.0191,-0.0192,-0.0193,-0.0194,0,0.0499,0.0536,0.0622,0.0671,0.0701,0.0781,0.084,0.0879,0.0932,0.0941,0.096,0.0856,0.0769,0.049,0.0289,0.0014,-0.0033,-0.0123,-0.0135,-0.012,-0.0149,-0.0143,-0.0138,-0.0196,-0.0196,-0.0196,-0.0196,0,0.0537,0.0568,0.0622,0.0726,0.0802,0.0898,0.0979,0.1026,0.1063,0.1072,0.1036,0.0887,0.0733,0.05,0.0286,0.0086,-0.0069,-0.0135,-0.0135,-0.0146,-0.0128,-0.0154,-0.0147,-0.02,-0.0199,-0.0199,-0.0199,0,0.0566,0.061,0.0683,0.0776,0.0878,0.0971,0.1018,0.1071,0.112,0.1114,0.1101,0.0928,0.0831,0.0538,0.0342,0.0142,0.0082,0.0001,-0.0007,-0.0005,0.0065,0.0116,0.0097,0,0,0,0,0,0.0591,0.0641,0.0729,0.0827,0.0931,0.0992,0.1091,0.1128,0.1162,0.1147,0.1125,0.0978,0.0689,0.0572,0.037,0.0306,0.0038,0.0059,-0.0061,-0.0219,-0.0215,-0.0167,0,0,0,0,0,0,0.0605,0.0685,0.0726,0.0853,0.0929,0.1049,0.1114,0.1142,0.1131,0.1129,0.0988,0.0913,0.0642,0.0807,0.0364,0.0304,0.0194,-0.007,-0.0075,-0.0222,-0.0218,-0.0215,-0.0164,0,0,0,0,0]}]]